Location: Boiro
(42.6475°N, 8.8834°W)
Time: 03:08:52
(UTC+01:00)

Vanguard 1 Rocket - Pass Details

Date: 15 December 2021
Orbit: 651 x 4224 km, 34.3° (Epoch: 21 January)

Event Time Altitude Azimuth Distance (km) Brightness Sun altitude
Rises 03:42:10 0° 259° (W) 3,798 - -56.6°
Reaches altitude 10° 03:44:21 10° 254° (WSW) 3,102 - -56.3°
Maximum altitude 03:51:55 54° 179° (S) 2,068 - -55.0°
Exits shadow 03:57:23 35° 124° (SE) 3,174 10.1 -54.0°
Drops below altitude 10° 04:06:39 10° 109° (ESE) 5,790 11.8 -52.4°
Sets 04:12:28 0° 106° (ESE) 7,352 12.5 -51.4°
